Regional Weather Roundup
Issued by NWS

Home | Current Version | Previous Version | Text Only | Print | Product List | Glossary Off
Versions: 1 2 3 4 5 6 7 8 9 10 11 12 13 14 15 16 17 18 19 20 21 22 23 24 25 26 27 28 29 30 31 32 33 34 35 36 37 38 39 40 41 42 43 44 45 46 47 48 49 50

000
ASUS45 KCYS 030510
RWRWY

WYOMING REGIONAL WEATHER ROUNDUP
NATIONAL WEATHER SERVICE CHEYENNE WY
1100 PM MDT WED SEP 02 2015

NOTE:  "FAIR" INDICATES FEW OR NO CLOUDS BELOW 12,000 FEET
WITH NO SIGNIFICANT WEATHER AND/OR OBSTRUCTIONS TO VISIBILITY.

WYZ001-030600-
YELLOWSTONE NATIONAL PARK

CITY           SKY/WX    TMP DP  RH WIND       PRES   REMARKS
LK YELLOWSTONE   N/A     46  35  65 CALM      30.12F
W YELLOWSTONE  NOT AVBL

$$
WYZ002>013-054>058-071-098>099-030600-
NORTHERN WYOMING

CITY           SKY/WX    TMP DP  RH WIND       PRES   REMARKS
JACKSON        FAIR      61  34  36 CALM      30.02S
CODY           FAIR      75  36  23 W9G16     29.86F
GREYBULL       FAIR      73  31  21 W5        29.77R
WORLAND        FAIR      71  32  23 S8        29.80R
SHERIDAN       FAIR      64  41  42 S7        29.76F
BUFFALO        FAIR      74  32  21 SW10      29.88S
GILLETTE       FAIR      75  36  24 S17       29.83F
HULETT         FAIR      75  34  22 S9        29.85S
NEWCASTLE      FAIR      66  32  28 CALM      29.88S

$$
WYZ014>020-022>026-101>103-030600-
CENTRAL WYOMING

CITY           SKY/WX    TMP DP  RH WIND       PRES   REMARKS
BIG PINEY      FAIR      58  36  43 S3        30.10F
PINEDALE       FAIR      54  36  50 E3        30.11S
DUBOIS         FAIR      59  32  36 W10       30.08F
LANDER         FAIR      72  38  29 SW9       29.95R
RIVERTON       FAIR      70  35  27 SW7       29.95S
CASPER         FAIR      72  31  22 S13       29.97S
DOUGLAS        FAIR      78  38  23 W10       29.96F

$$
WYZ021-027>030-104>119-030600-
SOUTHERN WYOMING

CITY           SKY/WX    TMP DP  RH WIND       PRES   REMARKS
EVANSTON       FAIR      63  35  35 S10       30.10F
KEMMERER       FAIR      63  32  31 S6        30.12F
FORT BRIDGER   CLEAR     61  36  39 S10       30.14S
ROCK SPRINGS   FAIR      63  39  41 S6        30.11S
DIXON          FAIR      63  43  49 E9        30.15S
RAWLINS        FAIR      66  41  40 SW10      30.12F
SARATOGA       FAIR      61  43  51 S9        30.17S
LARAMIE        FAIR      60  39  45 S6        30.18F
CHEYENNE       MOCLDY    68  41  37 W9        30.09S
TORRINGTON     FAIR      68  48  48 E7        29.91S
PINE BLUFFS    FAIR      64  41  42 S9        30.03S

$$


USA.gov is the U.S. government's official web portal to all federal, state and local government web resources and services.